Location: Unspecified
(0.0000°N, 0.0000°E)
Time: 18:47:19
(UTC+00:00)

Transit 2A Rocket - All Passes

Search period start: 24 October 2014 00:00
Search period end: 03 November 2014 00:00
Orbit: 591 x 917 km, 66.7° (Epoch: 23 October)

Date Brightness Start Highest point End Pass type
(mag) Time Alt. Az. Time Alt. Az. Time Alt. Az.
24 Oct - 03:54:22 10° NNW 04:00:21 73° WSW 04:06:27 10° SSE visible
24 Oct - 14:46:02 10° SSE 14:48:39 16° ESE 14:51:12 10° ENE daylight
24 Oct - 16:27:52 10° WSW 16:30:57 19° WNW 16:34:01 10° NNW daylight
25 Oct - 03:12:46 10° N 03:18:40 60° ENE 03:24:40 10° SSE visible
25 Oct - 04:59:21 10° W 05:01:12 11° WSW 05:03:02 10° SW visible
25 Oct - 15:45:09 10° SW 15:49:17 45° WNW 15:53:22 10° N daylight
26 Oct - 02:31:46 10° N 02:36:59 31° ENE 02:42:17 10° SE visible
26 Oct - 04:14:47 10° WNW 04:19:26 23° WSW 04:24:08 10° SSW visible
26 Oct - 15:03:18 10° SSW 15:07:38 72° ESE 15:11:52 10° NNE daylight
27 Oct - 01:51:44 10° NE 01:55:16 16° ENE 01:58:51 10° ESE visible
27 Oct - 03:32:01 10° NW 03:37:42 44° WSW 03:43:29 10° S visible
27 Oct - 14:22:10 10° S 14:25:57 29° ESE 14:29:38 10° NE daylight
28 Oct - 02:49:58 10° NNW 02:56:00 84° WSW 03:02:07 10° SSE visible
28 Oct - 13:42:20 10° SE 13:44:13 13° ESE 13:46:05 10° E daylight
28 Oct - 15:23:06 10° WSW 15:26:32 23° WNW 15:29:57 10° NNW daylight
29 Oct - 02:08:29 10° N 02:14:18 51° ENE 02:20:12 10° SE visible
29 Oct - 03:53:53 10° W 03:56:48 14° WSW 03:59:44 10° SW visible
29 Oct - 14:40:38 10° SSW 14:44:52 56° WNW 14:49:02 10° N daylight
30 Oct - 01:27:39 10° NNE 01:32:36 27° ENE 01:37:37 10° SE night (unlit)
30 Oct - 03:10:03 10° NW 03:15:03 27° WSW 03:20:05 10° SSW visible
30 Oct - 13:58:56 10° S 14:03:11 57° ESE 14:07:22 10° NNE daylight
31 Oct - 00:48:02 10° NE 00:50:52 14° ENE 00:53:43 10° E night (unlit)
31 Oct - 02:27:28 10° NW 02:33:19 51° WSW 02:39:13 10° S visible
31 Oct - 13:18:00 10° SSE 13:21:29 24° ESE 13:24:54 10° ENE daylight
31 Oct - 15:01:59 10° W 15:03:46 12° WNW 15:05:33 10° NW daylight
01 Nov - 01:45:33 10° NNW 01:51:36 84° ENE 01:57:43 10° SSE night (unlit)
01 Nov - 14:18:21 10° SW 14:22:04 29° WNW 14:25:46 10° N daylight
02 Nov - 01:04:12 10° N 01:09:53 44° ENE 01:15:38 10° SE night (unlit)
02 Nov - 02:48:44 10° WNW 02:52:22 16° WSW 02:56:00 10° SSW night (unlit)
02 Nov - 13:36:05 10° SSW 13:40:23 71° WNW 13:44:37 10° NNE daylight
